sat.trackr.live / text

‹ back to catalog

GEESAT-5 05

NORAD 65554 · 2025-201E

PAYLOAD ACTIVE UNKNOWN

§ Identity

Operator
Country
PRC
Launch date
2025-09-08
Launch site
YSLA
Launch vehicle
Mass (kg)
RCS (m²)

External: N2YO · Heavens-Above · Gunter

§ Orbital elements

Epoch: 2026-09-19T11:54:54.871488Z

Period
97.01 min
Inclination
49.9827°
Eccentricity
0.0011015
Mean motion
14.84362028 rev/d
Perigee alt
607.9 km
Apogee alt
623.3 km
Semi-major
6,993.7 km
B*
1.3100e-4
RAAN
321.4949°
Arg perigee
281.2189°
Mean anomaly
78.7511°
Rev number
5,580

§ Raw data

GEESAT-5 051 65554U 25201E   26262.49646842  .00000883  00000+0  13100-3 0  99922 65554  49.9827 321.4949 0011015 281.2189  78.7511 14.84362028 55802

JSON: /api/v1/satellites/65554 · /tle

For live sub-satellite position, see the globe view (requires WebGL).

§ Visibility from observer

Set your observer location to see the next 7 days of passes ≥ 10°. The values pass through the URL so the page stays shareable.

No JS? Fill the form by hand. The geolocation button needs JavaScript.